This demonstration page uses our WeatherBlox Daily Observations layout. Learn more.

Left ArrowRight Arrow

Hourly Observations for August 3, 2020

Temp ( °F °C ) Dew Point ( °F °C ) Humidity (%) Winds ( mph kmh ) Pressure ( in mb ) Visibility ( mi km ) Precip ( " mm )
12:15 am 00:15 Partly Cloudy 66 19 66 19 100 100 S 3 6 29.97 1015 10 16.0934 N/A
12:35 am 00:35 Clear 66 19 66 19 100 100 Calm 29.97 1015 10 16.0934 N/A
12:55 am 00:55 Clear 63 17 63 17 100 100 Calm 29.98 1015 10 16.0934 N/A
1:15 am 01:15 Partly Cloudy 63 17 63 17 100 100 S 5 7 29.98 1015 10 16.0934 N/A
1:35 am 01:35 Mostly Cloudy 64 18 64 18 100 100 S 3 6 29.97 1015 10 16.0934 N/A
1:55 am 01:55 Partly Cloudy 64 18 64 18 100 100 S 5 7 29.96 1015 10 16.0934 N/A
2:15 am 02:15 Clear 64 18 64 18 100 100 Calm 29.96 1015 10 16.0934 N/A
2:35 am 02:35 Clear 64 18 64 18 100 100 S 3 6 29.96 1015 10 16.0934 N/A
2:55 am 02:55 Clear 64 18 64 18 100 100 Calm 29.95 1014 10 16.0934 N/A
3:15 am 03:15 Clear 63 17 63 17 100 100 Calm 29.96 1014 10 16.0934 N/A
3:35 am 03:35 Partly Cloudy 63 17 63 17 100 100 Calm 29.97 1015 10 16.0934 N/A
3:55 am 03:55 Partly Cloudy 64 18 64 18 100 100 S 5 7 29.95 1014 10 16.0934 N/A
4:15 am 04:15 Clear 63 17 63 17 100 100 S 3 6 29.96 1014 10 16.0934 N/A
4:35 am 04:35 Clear 63 17 63 17 100 100 S 6 9 29.95 1014 7 11.26538 N/A
4:55 am 04:55 Clear 64 18 64 18 100 100 S 3 6 29.94 1014 7 11.26538 N/A
5:15 am 05:15 Clear 63 17 63 17 100 100 S 3 6 29.95 1014 5 8.0467 N/A
5:35 am 05:35 Clear 63 17 63 17 100 100 SSE 5 7 29.95 1014 7 11.26538 N/A
5:55 am 05:55 Clear 63 17 63 17 100 100 S 5 7 29.97 1015 5 8.0467 N/A
6:15 am 06:15 Clear 63 17 63 17 100 100 Calm 29.97 1015 5 8.0467 N/A
6:35 am 06:35 Clear 63 17 63 17 100 100 S 3 6 29.98 1015 7 11.26538 N/A
6:55 am 06:55 Sunny 63 17 63 17 100 100 SSE 5 7 29.98 1015 7 11.26538 N/A
7:15 am 07:15 Sunny 63 17 63 17 100 100 Calm 29.99 1015 7 11.26538 N/A
7:35 am 07:35 Sunny 63 17 63 17 100 100 S 3 6 29.99 1015 7 11.26538 N/A
7:55 am 07:55 Sunny 64 18 64 18 100 100 S 3 6 29.99 1016 7 11.26538 N/A
8:15 am 08:15 Sunny 64 18 64 18 100 100 SSW 5 7 29.99 1016 7 11.26538 N/A
8:35 am 08:35 Sunny 64 18 64 18 100 100 SW 5 7 29.99 1016 10 16.0934 N/A
8:55 am 08:55 Sunny 66 19 66 19 100 100 SSW 3 6 29.99 1016 10 16.0934 N/A
9:15 am 09:15 Sunny 68 20 68 20 100 100 S 5 7 30 1016 10 16.0934 N/A
9:35 am 09:35 Partly Cloudy 68 20 68 20 100 100 SSW 5 7 30 1016 10 16.0934 N/A
9:55 am 09:55 Mostly Cloudy 70 21 70 21 100 100 SW 6 9 30 1016 10 16.0934 N/A
10:15 am 10:15 Cloudy 72 22 72 22 100 100 WSW 8 13 29.98 1015 10 16.0934 N/A
10:35 am 10:35 Cloudy 72 22 72 22 100 100 W 9 15 29.98 1015 10 16.0934 N/A
10:55 am 10:55 Cloudy 73 23 73 23 100 100 WSW 7 11 29.98 1015 10 16.0934 N/A
11:15 am 11:15 Cloudy 75 24 73 23 94 94 W 7 11 29.98 1015 10 16.0934 N/A
11:35 am 11:35 Mostly Cloudy 75 24 73 23 94 94 SW 6 9 29.98 1015 10 16.0934 N/A
11:55 am 11:55 Cloudy 75 24 73 23 94 94 W 5 7 29.98 1015 10 16.0934 N/A
12:15 pm 12:15 Mostly Cloudy 77 25 73 23 89 89 W 8 13 29.97 1015 10 16.0934 N/A
12:35 pm 12:35 Cloudy 75 24 73 23 94 94 WNW 8 13 29.98 1015 10 16.0934 N/A
12:55 pm 12:55 Mostly Cloudy 75 24 73 23 94 94 WNW 7 11 29.98 1015 10 16.0934 N/A
1:15 pm 13:15 Mostly Cloudy 77 25 73 23 89 89 W 6 9 29.96 1015 10 16.0934 N/A
1:35 pm 13:35 Partly Cloudy 79 26 73 23 84 84 WNW 9 15 29.95 1014 10 16.0934 N/A
1:55 pm 13:55 Sunny 79 26 73 23 84 84 WNW 7 11 29.95 1014 10 16.0934 N/A
2:15 pm 14:15 Partly Cloudy 79 26 72 22 79 79 W 6 9 29.94 1014 10 16.0934 N/A
2:35 pm 14:35 Mostly Cloudy 77 25 73 23 89 89 NNW 7 11 29.94 1014 10 16.0934 N/A
2:55 pm 14:55 Cloudy 73 23 72 22 94 94 Calm 29.95 1014 10 16.0934 N/A
3:15 pm 15:15 Cloudy 73 23 72 22 94 94 ESE 7 11 29.95 1014 10 16.0934 N/A
3:35 pm 15:35 Cloudy 72 22 72 22 100 100 SE 9 15 29.95 1014 10 16.0934 N/A
3:55 pm 15:55 Cloudy 72 22 72 22 100 100 ESE 8 13 29.93 1014 10 16.0934 N/A
4:15 pm 16:15 Mostly Cloudy 72 22 72 22 100 100 E 7 11 29.93 1014 10 16.0934 N/A
4:35 pm 16:35 Mostly Cloudy 70 21 70 21 100 100 E 7 11 29.95 1014 10 16.0934 N/A
4:55 pm 16:55 Cloudy 68 20 68 20 100 100 S 10 17 29.95 1014 2 3.21868 N/A
5:15 pm 17:15 Cloudy 64 18 64 18 100 100 W 31 50 29.99 1016 1 1.60934 N/A
5:36 pm 17:36 Cloudy 64 18 64 18 100 100 NNE 7 11 29.98 1015 0.75 1.207005 N/A
5:55 pm 17:55 Cloudy 64 18 64 18 100 100 SE 7 11 29.97 1015 5 8.0467 N/A
6:15 pm 18:15 Mostly Cloudy 64 18 64 18 100 100 Calm 29.97 1015 10 16.0934 N/A
6:35 pm 18:35 Mostly Cloudy 64 18 64 18 100 100 NE 3 6 29.96 1015 10 16.0934 N/A
6:55 pm 18:55 Cloudy 64 18 64 18 100 100 ENE 6 9 29.95 1014 10 16.0934 N/A
7:15 pm 19:15 Cloudy 66 19 66 19 100 100 E 3 6 29.95 1014 10 16.0934 N/A
7:35 pm 19:35 Partly Cloudy 66 19 66 19 100 100 Calm 29.95 1014 10 16.0934 N/A
7:55 pm 19:55 Sunny 66 19 66 19 100 100 Calm 29.95 1014 10 16.0934 N/A
8:15 pm 20:15 Mostly Cloudy 66 19 66 19 100 100 Calm 29.95 1014 10 16.0934 N/A
8:35 pm 20:35 Mostly Cloudy 66 19 66 19 100 100 Calm 29.96 1015 10 16.0934 N/A
8:55 pm 20:55 Partly Cloudy 66 19 66 19 100 100 Calm 29.96 1015 10 16.0934 N/A
9:15 pm 21:15 Partly Cloudy 64 18 64 18 100 100 Calm 29.96 1015 10 16.0934 N/A
9:35 pm 21:35 Mostly Cloudy 64 18 64 18 100 100 Calm 29.96 1015 10 16.0934 N/A
9:55 pm 21:55 Mostly Cloudy 64 18 64 18 100 100 Calm 29.96 1015 10 16.0934 N/A
10:15 pm 22:15 Partly Cloudy 64 18 64 18 100 100 Calm 29.96 1015 10 16.0934 N/A
10:35 pm 22:35 Partly Cloudy 64 18 64 18 100 100 Calm 29.97 1015 1.25 2.011675 N/A
10:55 pm 22:55 Mostly Cloudy 64 18 64 18 100 100 Calm 29.97 1015 10 16.0934 N/A
11:15 pm 23:15 Cloudy 64 18 64 18 100 100 Calm 29.97 1015 10 16.0934 N/A
11:35 pm 23:35 Mostly Cloudy 64 18 64 18 100 100 Calm 29.96 1015 10 16.0934 N/A
11:55 pm 23:55 Partly Cloudy 64 18 64 18 100 100 Calm 29.96 1015 10 16.0934 N/A

Powered by AerisWeather